Time,TemperatureF,DewpointF,PressureIn,WindDirection,WindDirectionDegrees,WindSpeedMPH,WindSpeedGustMPH,Humidity,HourlyPrecipIn,Conditions,Clouds,dailyrainin,SoftwareType,DateUTC
2013-02-01 00:01:00,47.0,46.0,29.90,SW,225,0.0,3.0,98,0.00,,,0.00,,2013-02-01 08:01:00,
2013-02-01 00:11:00,47.0,46.0,29.90,SW,225,0.0,3.0,98,0.00,,,0.00,,2013-02-01 08:11:00,
2013-02-01 00:21:00,46.0,45.0,29.90,West,270,0.0,2.0,97,0.00,,,0.00,,2013-02-01 08:21:00,
2013-02-01 00:31:00,47.0,46.0,29.90,SE,135,1.0,4.0,98,0.00,,,0.00,,2013-02-01 08:31:00,
2013-02-01 00:42:00,47.0,46.0,29.90,SE,135,1.0,4.0,98,0.00,,,0.00,,2013-02-01 08:42:00,
2013-02-01 00:52:00,47.0,46.0,29.90,NE,45,1.0,4.0,97,0.00,,,0.00,,2013-02-01 08:52:00,
2013-02-01 01:01:00,47.0,46.0,29.90,NE,45,1.0,4.0,97,0.00,,,0.00,,2013-02-01 09:01:00,
2013-02-01 01:11:00,47.0,46.0,29.90,NE,45,1.0,4.0,97,0.00,,,0.00,,2013-02-01 09:11:00,
2013-02-01 01:21:00,48.0,47.0,29.89,SE,135,2.0,5.0,95,0.00,,,0.00,,2013-02-01 09:21:00,
2013-02-01 01:31:00,47.0,46.0,29.89,SW,225,2.0,4.0,95,0.00,,,0.00,,2013-02-01 09:31:00,
2013-02-01 01:42:00,47.0,46.0,29.89,SW,225,2.0,4.0,95,0.00,,,0.00,,2013-02-01 09:42:00,
2013-02-01 01:52:00,47.0,46.0,29.89,SW,225,2.0,4.0,95,0.00,,,0.00,,2013-02-01 09:52:00,
2013-02-01 02:01:00,47.0,46.0,29.90,NW,315,2.0,5.0,95,0.00,,,0.00,,2013-02-01 10:01:00,
2013-02-01 02:11:00,47.0,46.0,29.90,NW,315,2.0,5.0,95,0.00,,,0.00,,2013-02-01 10:11:00,
2013-02-01 02:21:00,46.0,45.0,29.90,SE,135,1.0,2.0,95,0.00,,,0.00,,2013-02-01 10:21:00,
2013-02-01 02:31:00,46.0,45.0,29.90,SW,225,1.0,3.0,96,0.00,,,0.00,,2013-02-01 10:31:00,
2013-02-01 02:42:00,46.0,45.0,29.90,SW,225,1.0,3.0,96,0.00,,,0.00,,2013-02-01 10:42:00,
2013-02-01 02:53:00,46.0,45.0,29.90,SE,135,1.0,4.0,97,0.00,,,0.00,,2013-02-01 10:53:00,
2013-02-01 03:01:00,46.0,45.0,29.90,East,90,2.0,4.0,97,0.00,,,0.00,,2013-02-01 11:01:00,
2013-02-01 03:11:00,46.0,45.0,29.90,East,90,2.0,4.0,97,0.00,,,0.00,,2013-02-01 11:11:00,
2013-02-01 03:21:00,47.0,46.0,29.90,East,90,2.0,8.0,97,0.00,,,0.00,,2013-02-01 11:21:00,
2013-02-01 03:31:00,47.0,46.0,29.90,East,90,2.0,8.0,97,0.00,,,0.00,,2013-02-01 11:31:00,
2013-02-01 03:41:00,47.0,46.0,29.90,East,90,2.0,8.0,97,0.00,,,0.00,,2013-02-01 11:41:00,
2013-02-01 03:53:00,47.0,45.0,29.90,SE,135,2.0,5.0,94,0.00,,,0.00,,2013-02-01 11:53:00,
2013-02-01 04:02:00,47.0,45.0,29.89,South,180,2.0,6.0,94,0.00,,,0.00,,2013-02-01 12:02:00,
2013-02-01 04:12:00,47.0,45.0,29.89,South,180,2.0,6.0,94,0.00,,,0.00,,2013-02-01 12:12:00,
2013-02-01 04:22:00,46.0,44.0,29.90,SE,135,2.0,5.0,94,0.00,,,0.00,,2013-02-01 12:22:00,
2013-02-01 04:32:00,46.0,44.0,29.90,SE,135,3.0,8.0,94,0.00,,,0.00,,2013-02-01 12:32:00,
2013-02-01 04:42:00,46.0,44.0,29.90,SE,135,3.0,8.0,94,0.00,,,0.00,,2013-02-01 12:42:00,
2013-02-01 04:52:00,46.0,44.0,29.90,SE,135,3.0,8.0,94,0.00,,,0.00,,2013-02-01 12:52:00,
2013-02-01 05:01:00,46.0,44.0,29.90,South,180,3.0,7.0,94,0.00,,,0.00,,2013-02-01 13:01:00,
2013-02-01 05:11:00,46.0,44.0,29.90,South,180,3.0,7.0,94,0.00,,,0.00,,2013-02-01 13:11:00,
2013-02-01 05:21:00,46.0,45.0,29.90,SE,135,3.0,7.0,95,0.00,,,0.00,,2013-02-01 13:21:00,
2013-02-01 05:32:00,46.0,45.0,29.90,SE,135,3.0,7.0,95,0.00,,,0.00,,2013-02-01 13:32:00,
2013-02-01 05:42:00,46.0,45.0,29.90,SE,135,3.0,7.0,95,0.00,,,0.00,,2013-02-01 13:42:00,
2013-02-01 05:53:00,45.0,44.0,29.89,East,90,3.0,7.0,96,0.00,,,0.00,,2013-02-01 13:53:00,
2013-02-01 06:02:00,45.0,44.0,29.89,SE,135,1.0,4.0,96,0.00,,,0.00,,2013-02-01 14:02:00,
2013-02-01 06:11:00,45.0,44.0,29.89,SE,135,1.0,4.0,96,0.00,,,0.00,,2013-02-01 14:11:00,
2013-02-01 06:21:00,44.0,43.0,29.90,South,180,2.0,5.0,96,0.00,,,0.00,,2013-02-01 14:21:00,
2013-02-01 06:31:00,44.0,43.0,29.90,South,180,2.0,5.0,96,0.00,,,0.00,,2013-02-01 14:31:00,
2013-02-01 06:42:00,44.0,43.0,29.90,South,180,2.0,5.0,96,0.00,,,0.00,,2013-02-01 14:42:00,
2013-02-01 06:52:00,45.0,44.0,29.91,SE,135,3.0,6.0,96,0.00,,,0.00,,2013-02-01 14:52:00,
2013-02-01 07:01:00,45.0,44.0,29.90,SE,135,3.0,6.0,97,0.00,,,0.00,,2013-02-01 15:01:00,
2013-02-01 07:11:00,45.0,44.0,29.90,SE,135,2.0,6.0,97,0.00,,,0.00,,2013-02-01 15:11:00,
2013-02-01 07:21:00,45.0,44.0,29.90,SE,135,2.0,6.0,97,0.00,,,0.00,,2013-02-01 15:21:00,
2013-02-01 07:32:00,45.0,44.0,29.89,SE,135,3.0,5.0,96,0.00,,,0.00,,2013-02-01 15:32:00,
2013-02-01 07:42:00,45.0,44.0,29.89,SE,135,3.0,5.0,96,0.00,,,0.00,,2013-02-01 15:42:00,
2013-02-01 07:52:00,45.0,44.0,29.89,SE,135,3.0,5.0,96,0.00,,,0.00,,2013-02-01 15:52:00,
2013-02-01 08:01:00,46.0,44.0,29.91,SE,135,4.0,9.0,94,0.00,,,0.00,,2013-02-01 16:01:00,
2013-02-01 08:11:00,46.0,44.0,29.91,SE,135,4.0,9.0,94,0.00,,,0.00,,2013-02-01 16:11:00,
2013-02-01 08:21:00,46.0,44.0,29.91,SE,135,4.0,9.0,94,0.00,,,0.00,,2013-02-01 16:21:00,
2013-02-01 08:32:00,47.0,45.0,29.91,SE,135,4.0,8.0,93,0.00,,,0.00,,2013-02-01 16:32:00,
2013-02-01 08:42:00,47.0,45.0,29.91,SE,135,4.0,8.0,93,0.00,,,0.00,,2013-02-01 16:42:00,
2013-02-01 08:52:00,47.0,45.0,29.91,SE,135,4.0,8.0,93,0.00,,,0.00,,2013-02-01 16:52:00,
2013-02-01 09:02:00,52.0,48.0,29.90,South,180,3.0,8.0,86,0.00,,,0.00,,2013-02-01 17:02:00,
2013-02-01 09:11:00,52.0,48.0,29.90,South,180,3.0,8.0,86,0.00,,,0.00,,2013-02-01 17:11:00,
2013-02-01 09:22:00,53.0,48.0,29.91,East,90,3.0,10.0,82,0.00,,,0.00,,2013-02-01 17:22:00,
2013-02-01 09:32:00,54.0,47.0,29.91,East,90,2.0,8.0,77,0.00,,,0.00,,2013-02-01 17:32:00,
2013-02-01 09:41:00,54.0,47.0,29.91,East,90,2.0,8.0,77,0.00,,,0.00,,2013-02-01 17:41:00,
2013-02-01 09:53:00,56.0,49.0,29.92,SE,135,2.0,5.0,77,0.00,,,0.00,,2013-02-01 17:53:00,
2013-02-01 10:02:00,57.0,49.0,29.92,SE,135,3.0,9.0,74,0.00,,,0.00,,2013-02-01 18:02:00,
2013-02-01 10:11:00,57.0,49.0,29.92,SE,135,3.0,9.0,74,0.00,,,0.00,,2013-02-01 18:11:00,
2013-02-01 10:22:00,58.0,49.0,29.91,South,180,3.0,9.0,72,0.00,,,0.00,,2013-02-01 18:22:00,
2013-02-01 10:31:00,60.0,51.0,29.91,South,180,2.0,8.0,71,0.00,,,0.00,,2013-02-01 18:31:00,
2013-02-01 10:42:00,60.0,51.0,29.91,South,180,2.0,8.0,71,0.00,,,0.00,,2013-02-01 18:42:00,
2013-02-01 10:53:00,62.0,51.0,29.90,NE,45,2.0,8.0,68,0.00,,,0.00,,2013-02-01 18:53:00,
2013-02-01 11:01:00,64.0,51.0,29.90,SE,135,2.0,11.0,63,0.00,,,0.00,,2013-02-01 19:01:00,
2013-02-01 11:11:00,64.0,51.0,29.90,SE,135,2.0,11.0,63,0.00,,,0.00,,2013-02-01 19:11:00,
2013-02-01 11:21:00,64.0,51.0,29.90,SE,135,2.0,11.0,63,0.00,,,0.00,,2013-02-01 19:21:00,
2013-02-01 11:31:00,66.0,50.0,29.88,SE,135,3.0,10.0,56,0.00,,,0.00,,2013-02-01 19:31:00,
2013-02-01 11:41:00,66.0,50.0,29.88,SE,135,3.0,10.0,56,0.00,,,0.00,,2013-02-01 19:41:00,
2013-02-01 11:52:00,67.0,52.0,29.88,SE,135,3.0,10.0,58,0.00,,,0.00,,2013-02-01 19:52:00,
2013-02-01 12:02:00,68.0,52.0,29.88,East,90,1.0,8.0,57,0.00,,,0.00,,2013-02-01 20:02:00,
2013-02-01 12:11:00,68.0,52.0,29.88,East,90,1.0,8.0,57,0.00,,,0.00,,2013-02-01 20:11:00,
2013-02-01 12:21:00,68.0,52.0,29.88,East,90,1.0,8.0,57,0.00,,,0.00,,2013-02-01 20:21:00,
2013-02-01 12:31:00,70.0,53.0,29.86,SE,135,2.0,5.0,55,0.00,,,0.00,,2013-02-01 20:31:00,
2013-02-01 12:41:00,70.0,53.0,29.86,SE,135,2.0,5.0,55,0.00,,,0.00,,2013-02-01 20:41:00,
2013-02-01 12:52:00,71.0,52.0,29.85,SW,225,2.0,5.0,52,0.00,,,0.00,,2013-02-01 20:52:00,
2013-02-01 13:01:00,72.0,52.0,29.85,SE,135,1.0,7.0,49,0.00,,,0.00,,2013-02-01 21:01:00,
2013-02-01 13:11:00,72.0,52.0,29.85,SE,135,1.0,7.0,49,0.00,,,0.00,,2013-02-01 21:11:00,
2013-02-01 13:21:00,73.0,53.0,29.84,SE,135,1.0,4.0,49,0.00,,,0.00,,2013-02-01 21:21:00,
2013-02-01 13:31:00,74.0,52.0,29.83,SW,225,1.0,4.0,46,0.00,,,0.00,,2013-02-01 21:31:00,
2013-02-01 13:41:00,74.0,52.0,29.83,SW,225,1.0,4.0,46,0.00,,,0.00,,2013-02-01 21:41:00,
2013-02-01 13:52:00,74.0,49.0,29.83,West,270,1.0,6.0,42,0.00,,,0.00,,2013-02-01 21:52:00,
2013-02-01 14:01:00,74.0,49.0,29.83,West,270,1.0,6.0,42,0.00,,,0.00,,2013-02-01 22:01:00,
2013-02-01 14:11:00,74.0,49.0,29.83,West,270,1.0,6.0,42,0.00,,,0.00,,2013-02-01 22:11:00,
2013-02-01 14:21:00,63.0,52.0,29.84,West,270,5.0,11.0,68,0.00,,,0.00,,2013-02-01 22:21:00,
2013-02-01 14:32:00,63.0,52.0,29.84,West,270,5.0,11.0,68,0.00,,,0.00,,2013-02-01 22:32:00,
2013-02-01 14:42:00,63.0,52.0,29.84,West,270,5.0,11.0,68,0.00,,,0.00,,2013-02-01 22:42:00,
2013-02-01 14:52:00,63.0,52.0,29.84,West,270,5.0,11.0,68,0.00,,,0.00,,2013-02-01 22:52:00,
2013-02-01 15:01:00,58.0,53.0,29.86,West,270,5.0,11.0,82,0.00,,,0.00,,2013-02-01 23:01:00,
2013-02-01 15:11:00,58.0,53.0,29.86,West,270,5.0,11.0,82,0.00,,,0.00,,2013-02-01 23:11:00,
2013-02-01 15:21:00,58.0,53.0,29.86,West,270,5.0,11.0,82,0.00,,,0.00,,2013-02-01 23:21:00,
2013-02-01 15:31:00,54.0,52.0,29.87,West,270,3.0,7.0,92,0.00,,,0.00,,2013-02-01 23:31:00,
2013-02-01 15:41:00,54.0,52.0,29.87,West,270,3.0,7.0,92,0.00,,,0.00,,2013-02-01 23:41:00,
2013-02-01 15:52:00,56.0,53.0,29.87,West,270,3.0,6.0,89,0.00,,,0.00,,2013-02-01 23:52:00,
2013-02-01 16:01:00,56.0,53.0,29.87,West,270,3.0,6.0,89,0.00,,,0.00,,2013-02-02 00:01:00,
2013-02-01 16:11:00,56.0,53.0,29.87,West,270,3.0,6.0,89,0.00,,,0.00,,2013-02-02 00:11:00,
2013-02-01 16:21:00,53.0,51.0,29.88,West,270,3.0,8.0,94,0.00,,,0.00,,2013-02-02 00:21:00,
2013-02-01 16:32:00,52.0,51.0,29.90,SW,225,4.0,9.0,98,0.00,,,0.00,,2013-02-02 00:32:00,
2013-02-01 16:42:00,52.0,51.0,29.90,SW,225,4.0,9.0,98,0.00,,,0.00,,2013-02-02 00:42:00,
2013-02-01 16:52:00,52.0,51.0,29.90,SW,225,4.0,9.0,98,0.00,,,0.00,,2013-02-02 00:52:00,
2013-02-01 17:01:00,51.0,51.0,29.90,West,270,3.0,8.0,99,0.00,,,0.00,,2013-02-02 01:01:00,
2013-02-01 17:11:00,51.0,51.0,29.90,West,270,3.0,8.0,99,0.00,,,0.00,,2013-02-02 01:11:00,
2013-02-01 17:21:00,51.0,51.0,29.90,South,180,3.0,9.0,99,0.00,,,0.00,,2013-02-02 01:21:00,
2013-02-01 17:31:00,51.0,51.0,29.90,South,180,3.0,9.0,99,0.00,,,0.00,,2013-02-02 01:31:00,
2013-02-01 17:41:00,51.0,51.0,29.90,South,180,3.0,9.0,99,0.00,,,0.00,,2013-02-02 01:41:00,
2013-02-01 17:52:00,50.0,50.0,29.90,West,270,2.0,5.0,99,0.00,,,0.00,,2013-02-02 01:52:00,
2013-02-01 18:01:00,50.0,50.0,29.91,West,270,1.0,5.0,99,0.00,,,0.00,,2013-02-02 02:01:00,
2013-02-01 18:11:00,50.0,50.0,29.91,West,270,1.0,5.0,99,0.00,,,0.00,,2013-02-02 02:11:00,
2013-02-01 18:21:00,50.0,50.0,29.92,WNW,292,1.0,3.0,99,0.00,,,0.00,,2013-02-02 02:21:00,
2013-02-01 18:31:00,50.0,50.0,29.92,West,270,0.0,3.0,99,0.00,,,0.00,,2013-02-02 02:31:00,
2013-02-01 18:41:00,50.0,50.0,29.92,West,270,0.0,3.0,99,0.00,,,0.00,,2013-02-02 02:41:00,
2013-02-01 18:52:00,50.0,50.0,29.92,North,360,0.0,2.0,99,0.00,,,0.00,,2013-02-02 02:52:00,
2013-02-01 19:02:00,49.0,49.0,29.91,South,180,0.0,2.0,99,0.00,,,0.00,,2013-02-02 03:02:00,
2013-02-01 19:11:00,49.0,49.0,29.91,South,180,0.0,2.0,99,0.00,,,0.00,,2013-02-02 03:11:00,
2013-02-01 19:21:00,49.0,49.0,29.91,South,180,0.0,2.0,99,0.00,,,0.00,,2013-02-02 03:21:00,
2013-02-01 19:32:00,49.0,49.0,29.91,South,180,0.0,2.0,99,0.00,,,0.00,,2013-02-02 03:32:00,
2013-02-01 19:42:00,49.0,49.0,29.92,SW,225,0.0,2.0,99,0.00,,,0.00,,2013-02-02 03:42:00,
2013-02-01 19:52:00,49.0,49.0,29.92,SW,225,0.0,2.0,99,0.00,,,0.00,,2013-02-02 03:52:00,
2013-02-01 20:01:00,49.0,49.0,29.93,North,0,0.0,2.0,99,0.00,,,0.00,,2013-02-02 04:01:00,
2013-02-01 20:11:00,49.0,49.0,29.93,North,0,0.0,2.0,99,0.00,,,0.00,,2013-02-02 04:11:00,
2013-02-01 20:21:00,48.0,48.0,29.93,North,0,0.0,2.0,99,0.00,,,0.00,,2013-02-02 04:21:00,
2013-02-01 20:32:00,48.0,48.0,29.93,West,270,0.0,2.0,99,0.00,,,0.00,,2013-02-02 04:32:00,
2013-02-01 20:41:00,48.0,48.0,29.93,West,270,0.0,2.0,99,0.00,,,0.00,,2013-02-02 04:41:00,
2013-02-01 20:52:00,47.0,47.0,29.93,North,0,0.0,2.0,99,0.00,,,0.00,,2013-02-02 04:52:00,
2013-02-01 21:02:00,47.0,47.0,29.93,North,0,0.0,2.0,99,0.00,,,0.00,,2013-02-02 05:02:00,
2013-02-01 21:11:00,47.0,47.0,29.93,North,0,0.0,2.0,99,0.00,,,0.00,,2013-02-02 05:11:00,
2013-02-01 21:22:00,46.0,46.0,29.93,South,180,0.0,2.0,99,0.00,,,0.00,,2013-02-02 05:22:00,
2013-02-01 21:32:00,46.0,46.0,29.93,South,180,0.0,2.0,99,0.00,,,0.00,,2013-02-02 05:32:00,
2013-02-01 21:42:00,46.0,46.0,29.93,South,180,0.0,2.0,99,0.00,,,0.00,,2013-02-02 05:42:00,
2013-02-01 21:52:00,45.0,45.0,29.93,South,180,0.0,2.0,99,0.00,,,0.00,,2013-02-02 05:52:00,
2013-02-01 22:01:00,45.0,45.0,29.93,South,180,0.0,2.0,99,0.00,,,0.00,,2013-02-02 06:01:00,
2013-02-01 22:12:00,45.0,45.0,29.93,South,180,0.0,2.0,99,0.00,,,0.00,,2013-02-02 06:12:00,
2013-02-01 22:21:00,44.0,44.0,29.93,West,270,0.0,2.0,99,0.00,,,0.00,,2013-02-02 06:21:00,
2013-02-01 22:31:00,44.0,44.0,29.93,East,90,0.0,3.0,99,0.00,,,0.00,,2013-02-02 06:31:00,
2013-02-01 22:42:00,44.0,44.0,29.93,East,90,0.0,3.0,99,0.00,,,0.00,,2013-02-02 06:42:00,
2013-02-01 22:52:00,44.0,44.0,29.93,East,90,0.0,3.0,99,0.00,,,0.00,,2013-02-02 06:52:00,
2013-02-01 23:01:00,44.0,44.0,29.95,SW,225,0.0,2.0,99,0.00,,,0.00,,2013-02-02 07:01:00,
2013-02-01 23:11:00,44.0,44.0,29.95,SW,225,0.0,2.0,99,0.00,,,0.00,,2013-02-02 07:11:00,
2013-02-01 23:21:00,44.0,44.0,29.96,NW,315,0.0,2.0,99,0.00,,,0.00,,2013-02-02 07:21:00,
2013-02-01 23:31:00,44.0,44.0,29.96,NW,315,0.0,2.0,99,0.00,,,0.00,,2013-02-02 07:31:00,
2013-02-01 23:41:00,44.0,44.0,29.96,NW,315,0.0,2.0,99,0.00,,,0.00,,2013-02-02 07:41:00,
2013-02-01 23:51:00,44.0,44.0,29.96,NW,315,0.0,2.0,99,0.00,,,0.00,,2013-02-02 07:51:00,